Flag for Angola Weather past 2 weeks in Luanda, Angola

Now
75 °F

Sunny.


Feels Like: 77 °F
Forecast: 66 / 74 °F
Wind: 7 mph from Northwest

Location: Luanda Airport

Current Time: Sep 1, 2015 at 1:33:36 PM

Latest Report: Sep 1, 2015 at 12:00 PM


Visibility: 10 mi

Pressure: 29.98 "Hg

Humidity: 74%

Dew point: 66 °F

Location of LuandaLocation

Historic Weather in Luanda — Graph

°F

Luanda temperature yesterday

Maximum temperature yesterday: 81 °F (at 12:00 PM)
Minimum temperature yesterday: 68 °F (at 2:00 AM)
Average temperature yesterday: 72 °F

Past Weeks' High & Low Weather Summary

 TemperatureHumidityPressure
High81 °F (Aug 31, 12:00 PM)100% (Aug 23, 6:00 AM)30.24 "Hg (Aug 23, 6:00 AM)
Low61 °F (Aug 23, 6:00 AM)27% (Aug 21, 7:00 PM)29.83 "Hg (Aug 23, 4:00 PM)
Average70 °F82%29.95 "Hg
* Reported Aug 17 12:00 Noon — Sep 1 12:00 Noon, Luanda, Weather by CustomWeather, © 2015

Note: Actual official high and low records may vary slightly from our data, if they occured in-between our weather recording intervals... More about our weather records

Advertising

Luanda weather history for previous 24 hours

 ConditionsComfort  
Time TempWeatherWind HumidityBarometerVisibility
12:00 PM
Tue, Sep 1
75 °FSunny.7 mph74%29.98 "Hg10 mi
11:00 AM75 °FScattered clouds.7 mph74%30.01 "HgN/A
10:00 AM72 °FBroken clouds.5 mph83%30.01 "Hg4 mi
9:00 AM70 °FBroken clouds.5 mph88%30.01 "Hg5 mi
8:00 AM70 °FBroken clouds.5 mph88%30.01 "Hg5 mi
7:00 AM70 °FPartly sunny.2 mph83%29.98 "HgN/A
6:00 AM70 °FPassing clouds.3 mph83%29.98 "HgN/A
4:00 AM70 °FPassing clouds.5 mph83%29.98 "HgN/A
3:00 AM70 °FPassing clouds.5 mph83%29.98 "HgN/A
2:00 AM70 °FPassing clouds.5 mph88%29.98 "HgN/A
1:00 AM70 °FPassing clouds.5 mph88%30.01 "HgN/A
12:00 AM68 °FPassing clouds.7 mph94%30.01 "HgN/A
11:00 PM
Mon, Aug 31
70 °FPassing clouds.9 mph88%30.01 "HgN/A
10:00 PM70 °FPassing clouds.9 mph88%30.01 "HgN/A
9:00 PM70 °FPassing clouds.10 mph88%29.98 "HgN/A
7:00 PM70 °FPassing clouds.10 mph83%29.92 "HgN/A
6:00 PM72 °FScattered clouds.12 mph78%29.92 "HgN/A
5:00 PM73 °FSunny.9 mph78%29.89 "Hg10 mi
4:00 PM73 °FSunny.12 mph78%29.89 "Hg10 mi
3:00 PM73 °FSunny.14 mph78%29.92 "Hg10 mi
2:00 PM77 °FSunny.9 mph65%29.92 "Hg10 mi
1:00 PM79 °FSunny.9 mph61%29.95 "Hg10 mi
Weather by CustomWeather, © 2015

See weather overviewHow to use our weather pages